Tracking 20093 objects as of 14-Dec-2019
HD Live streaming from Space Station
objects crossing your sky now

FENGYUN 1C DEB

Track FENGYUN 1C DEB now!
10-day predictions


NORAD ID: 36680
Int'l Code: 1999-025DZA
Perigee: 708.9 km
Apogee: 1,000.7 km
Inclination: 98.7 °
Period: 101.9 minutes
Semi major axis: 7225 km
RCS: 0.0016 m2 (small)
Launch date: May 10, 1999
Source: People's Republic of China (PRC)
Launch site: Taiyaun Space Center, China (TSC)

Note: This is SATELLITE DEBRIS
aabbcc
Your satellite tracking list
Your tracking list is empty




NASA's NSSDC Master Catalog

Two Line Element Set (TLE):
1 36680U 99025DZA 19347.08646899 +.00000160 +00000-0 +88567-4 0  9997
2 36680 098.6751 030.7484 0201876 061.1850 329.9132 14.13423667333030
Source of the keplerian elements: AFSPC